1341967830116,0.000160270
1341967890116,0.000161290
1341967950116,0.000159662
1341968010116,0.000158704
1341968070116,0.000160101
1341971430126,0.000154962
1341971490126,0.000156488
1341971550126,0.000155807
1341971610126,0.000155993
1341971670126,0.000157278
1341971730126,0.000158273
1341971790126,0.000158533
1341971850126,0.000156340
1341971910126,0.000156852
1341971970126,0.000156576
1341972030136,0.000156719
1341972090136,0.000155351
1341972150136,0.000155600
1341972210136,0.000156101
1341972270136,0.000156740
1341972330136,0.000157210
1341972390136,0.000156888
1341972450136,0.000155658
1341972510136,0.000157649
1341972570136,0.000156993
1341972630136,0.000157414
1341972690136,0.000155309
1341972750136,0.000154641
1341972810136,0.000155202
1341972870136,0.000155915
1341972930136,0.000154856
1341972990136,0.000155847
1341973050136,0.000158068
1341973110136,0.000155531
1341973170136,0.000156239
1341973230136,0.000157140
1341973290136,0.000157088
1341973350136,0.000156689
1341973410136,0.000155664
1341973470136,0.000154840
1341973530136,0.000153952
1341973590136,0.000155096
1341973650136,0.000155780
1341973710136,0.000155974
1341973770136,0.000155689
1341973830136,0.000155035
1341973890136,0.000155379
1341973950136,0.000154768
1341974010136,0.000155704
1341974070136,0.000156648
1341974130136,0.000156225
1341974190136,0.000156345
1341974250136,0.000156647
1341974310136,0.000157330
1341974370136,0.000155367
1341974430136,0.000155856
1341974490136,0.000156691
1341974550136,0.000157191
1341974610136,0.000157704
1341974670136,0.000158351
1341974730136,0.000157809
1341974790136,0.000156145
1341974850136,0.000158568
1341974910136,0.000158062
1341974970136,0.000158242
1341975030136,0.000158540
1341975090136,0.000157440
1341975150136,0.000156485
1341975210136,0.000156833
1341975270136,0.000156097
1341975330136,0.000157287
1341975390136,0.000156286
1341975450136,0.000156365
1341975510136,0.000156455
1341975570136,0.000155724
1341975630145,0.000156651
1341975690145,0.000156700
1341975750145,0.000156129
1341975810145,0.000155300
1341975870145,0.000154989
1341975930145,0.000154656
1341975990145,0.000155789
1341976050145,0.000155805
1341976110145,0.000155651
1341976170146,0.000156082
1341976230146,0.000155549
1341976290146,0.000157686
1341976350146,0.000155574
1341976410145,0.000154679
1341976470145,0.000156643
1341976530145,0.000155609
1341976590145,0.000155297
1341976650145,0.000156347
1341976710145,0.000154805
1341976770145,0.000156020
1341976830145,0.000155408
1341976890145,0.000154127
1341976950145,0.000155644
1341977010145,0.000155146
1341977070145,0.000155535
1341977130145,0.000155783
1341977190145,0.000155959
1341977250145,0.000153584
1341977310145,0.000153262
1341977370145,0.000154417
1341977430145,0.000153882
1341977490146,0.000155224
1341977550146,0.000154254
1341977610146,0.000153624
1341977670146,0.000153420
1341977730146,0.000154383
1341977790145,0.000154044
1341977850145,0.000154344
1341977910145,0.000155685
1341977970145,0.000154446
1341978030145,0.000156668
1341978090145,0.000157819
1341978150145,0.000156256
1341978210145,0.000156955
1341978270145,0.000156222
1341978330145,0.000157433
1341978390145,0.000156191
1341978450145,0.000155639
1341978510145,0.000154554
1341978570145,0.000157169
1341978630145,0.000155217
1341978690145,0.000156176
1341978750145,0.000155744
1341978810145,0.000155715
1341978870146,0.000156173
1341978930146,0.000154711
1341978990146,0.000153490
1341979050146,0.000155838
1341979110145,0.000155126
1341979170145,0.000154251
1341979230155,0.000155255
1341979290155,0.000154479
1341979350155,0.000153653
1341979410155,0.000155962
1341979470155,0.000155112
1341979530155,0.000155968
1341979590155,0.000155025
1341979650155,0.000155285
1341979710155,0.000155012
1341979770155,0.000154761
1341979830155,0.000155438
1341979890155,0.000155166
1341979950155,0.000154819
1341980010155,0.000156270
1341980070155,0.000155584
1341980130155,0.000154500
1341980190155,0.000154090
1341980250155,0.000153587
1341980310155,0.000154772
1341980370155,0.000154328
1341980430155,0.000154595
1341980490155,0.000154218
1341980550155,0.000155989
1341980610155,0.000156542
1341980670155,0.000154490
1341980730155,0.000155272
1341980790155,0.000154774
1341980850155,0.000155265
1341980910155,0.000155551
1341980970155,0.000154716
1341981030155,0.000155320
1341981090155,0.000154385
1341981150155,0.000155518
1341981210155,0.000155593
1341981270155,0.000155552
1341981330155,0.000154312
1341981390155,0.000155638
1341981450155,0.000156485
1341981510155,0.000157626
1341981570155,0.000155970
1341981630155,0.000155929
1341981690155,0.000155983
1341981750155,0.000155529
1341981810155,0.000155049
1341981870155,0.000154735
1341981930155,0.000155667
1341981990155,0.000154846
1341982050155,0.000153930
1341982110155,0.000154524
1341982170155,0.000154770
1341982230155,0.000155511
1341982290155,0.000154640
1341982350155,0.000156059
1341982410155,0.000155118
1341982470155,0.000155008
1341985830164,0.000156322
1341985890164,0.000154226
1341985950164,0.000154137
1341986010164,0.000153403
1341986070164,0.000155669
1341989430173,0.000154786
1341989490173,0.000155121
1341989550173,0.000154821
1341989610173,0.000154890
1341989670173,0.000155493
1341993030182,0.000155747
1341993090182,0.000155538
1341993150182,0.000157637
1341993210182,0.000155258
1341993270182,0.000155906
1341996630191,0.000158226
1341996690191,0.000157290
1341996750191,0.000157539
1341996810191,0.000157799
1341996870191,0.000156559
1342000230200,0.000154486
1342000290200,0.000156085
1342000350200,0.000155176
1342000410200,0.000155001
1342000470200,0.000155310
1342003830209,0.000158186
1342003890209,0.000158001
1342003950209,0.000159592
1342004010209,0.000160691
1342004070209,0.000159789
1342007430218,0.000158871
1342007490218,0.000157719
1342007550218,0.000155256
1342007610218,0.000155883
1342007670218,0.000156707
1342011030227,0.000154173
1342011090227,0.000155840
1342011150227,0.000155868
1342011210227,0.000153948
1342011270227,0.000153870
1342014630236,0.000153264
1342014690236,0.000152233
1342014750236,0.000154028
1342014810236,0.000153361
1342014870236,0.000155450
1342018230245,0.000158241
1342018290245,0.000157685
1342018350245,0.000157915
1342018410245,0.000158038
1342018470245,0.000157405
1342021830255,0.000158888
1342021890255,0.000159882
1342021950255,0.000159318
1342022010255,0.000158493
1342022070255,0.000158869
1342025430264,0.000156611
1342025490264,0.000154945
1342025550264,0.000155867
1342025610264,0.000158514
1342025670264,0.000157214
1342029030274,0.000156249
1342029090274,0.000157300
1342029150274,0.000156924
1342029210274,0.000158759
1342029270274,0.000157811
1342032630285,0.000155842
1342032690285,0.000158138
1342032750285,0.000158500
1342032810285,0.000157516
1342032870285,0.000158123
1342036230295,0.000160107
1342036290295,0.000159477
1342036350295,0.000158049
1342036410295,0.000159372
1342036470295,0.000157084
1342039830306,0.000161738
1342039890306,0.000161394
1342039950306,0.000161686
1342040010306,0.000159606
1342040070306,0.000160526
1342043430317,0.000158665
1342043490317,0.000158810
1342043550317,0.000159541
1342043610317,0.000156149
1342043670317,0.000158347
1342047030328,0.000162121
1342047090328,0.000159472
1342047150328,0.000158805
1342047210328,0.000158385
1342047270328,0.000158332
1342050630338,0.000159100
1342050690338,0.000160923
1342050750338,0.000158482
1342050810338,0.000157999
1342050870338,0.000155941
